This is the latest recevied weather packets stored in our database for station/object JE4YKI-13. If no packets are shown the sender has not sent any weather packets the latest 10 day(s).
| Time | Temp. | Humidity | Pressure | Rain* | Wind** | Luminosity | Snow |
|---|---|---|---|---|---|---|---|
| 1777791466 | 15° C | 96% | 1000.2 hPa | 7.62 mm | - | - | - |
| 1777790866 | 15° C | 96% | 1000.5 hPa | 10.92 mm | - | - | - |
| 1777790266 | 15° C | 96% | 1000.8 hPa | 10.16 mm | - | - | - |
| 1777789664 | 15° C | 96% | 1001 hPa | 31.75 mm | - | - | - |
| 1777789064 | 15° C | 96% | 1001 hPa | 5.33 mm | - | - | - |
| 1777788463 | 15° C | 96% | 1001.4 hPa | 6.86 mm | - | - | - |
| 1777786060 | 15° C | 96% | 1002.1 hPa | 10.41 mm | - | - | - |
| 1777785460 | 15° C | 96% | 1002.3 hPa | 18.03 mm | - | - | - |
| 1777784859 | 15° C | 96% | 1002.5 hPa | 6.1 mm | - | - | - |
| 1777784259 | 15° C | 95% | 1002.6 hPa | 9.91 mm | - | - | - |
| 1777783658 | 15° C | 95% | 1002.6 hPa | 3.05 mm | - | - | - |
| 1777783058 | 15° C | 95% | 1002.9 hPa | 6.6 mm | - | - | - |
| 1777782457 | 15.56° C | 95% | 1003.3 hPa | 16 mm | - | - | - |
| 1777781857 | 15.56° C | 95% | 1003.3 hPa | 7.11 mm | - | - | - |
| 1777781255 | 15.56° C | 95% | 1003.5 hPa | 7.87 mm | - | - | - |
| 1777780654 | 15.56° C | 95% | 1003.8 hPa | 2.29 mm | - | - | - |
| 1777780054 | 15.56° C | 94% | 1003.9 hPa | 2.79 mm | - | - | - |
| 1777779454 | 15.56° C | 94% | 1004.1 hPa | 1.52 mm | - | - | - |
| 1777778853 | 15.56° C | 94% | 1004.5 hPa | 4.57 mm | - | - | - |
| 1777778253 | 15.56° C | 93% | 1004.8 hPa | 2.03 mm | - | - | - |
| 1777777653 | 15.56° C | 93% | 1004.8 hPa | 7.37 mm | - | - | - |
| 1777777052 | 15.56° C | 93% | 1005 hPa | 1.02 mm | - | - | - |
| 1777776452 | 15.56° C | 93% | 1005.2 hPa | 3.56 mm | - | - | - |
| 1777775852 | 15.56° C | 93% | 1005.6 hPa | 0 mm | - | - | - |
| 1777775251 | 15.56° C | 92% | 1005.9 hPa | 0 mm | - | - | - |
* Rain latest hour (hover to see other rain measurements)
** Current wind speed in m/s (hover to see current wind gust speed)